Flag for United Kingdom Weather past 2 weeks in Aberdeen, Scotland, United Kingdom

Now
48 °F

Sprinkles. Scattered clouds.


Feels Like: 42 °F
Forecast: 40 / 46 °F
Wind: 17 mph from Northwest

Location: Aberdeen / Dyce

Current Time: Apr 25, 2015 at 1:32:55 PM

Latest Report: Apr 25, 2015 at 12:50 PM


Visibility: N/A

Pressure: 29.50 "Hg

Humidity: 58%

Dew point: 34 °F

Location of AberdeenLocation

Historic Weather in Aberdeen — Graph

°F

Aberdeen temperature yesterday

Maximum temperature yesterday: 59 °F (at 1:20 PM)
Minimum temperature yesterday: 45 °F (at 8:50 PM)
Average temperature yesterday: 50 °F

Past Weeks' High & Low Weather Summary

 TemperatureHumidityPressure
High61 °F (Apr 14, 11:50 AM)100% (Apr 18, 3:50 AM)30.60 "Hg (Apr 18, 3:50 AM)
Low30 °F (Apr 18, 6:20 AM)40% (Apr 12, 1:50 PM)29.42 "Hg (Apr 25, 1:50 AM)
Average47 °F74%30.11 "Hg
* Reported Apr 10 12:20 PM — Apr 25 12:20 PM, Aberdeen, Weather by CustomWeather, © 2015

Note: Actual official high and low records may vary slightly from our data, if they occured in-between our weather recording intervals... More about our weather records

Advertising

Aberdeen weather history for previous 24 hours

 ConditionsComfort  
Time TempWeatherWind HumidityBarometerVisibility
12:20 PM
Sat, Apr 25
46 °FScattered clouds.16 mph57%29.50 "HgN/A
11:50 AM46 °FScattered clouds.17 mph57%29.50 "HgN/A
11:20 AM45 °FPassing clouds.15 mph61%29.47 "HgN/A
10:50 AM43 °FScattered clouds.13 mph66%29.47 "HgN/A
10:20 AM41 °FScattered clouds.16 mph70%29.47 "HgN/A
9:50 AM41 °FScattered clouds.14 mph76%29.47 "HgN/A
9:20 AM39 °FScattered clouds.16 mph87%29.47 "HgN/A
8:50 AM39 °FScattered clouds.14 mph87%29.47 "HgN/A
8:20 AM39 °FPartly sunny.16 mph81%29.45 "HgN/A
7:50 AM39 °FPartly sunny.10 mph81%29.45 "HgN/A
7:20 AM37 °FDrizzle. Broken clouds.10 mph87%29.45 "HgN/A
6:50 AM37 °FScattered clouds.7 mph87%29.45 "HgN/A
6:20 AM37 °FLight rain. Passing clouds.13 mph87%29.45 "HgN/A
5:50 AM37 °FLight rain. Passing clouds.17 mph93%29.45 "HgN/A
5:20 AM39 °FLight rain. Partly cloudy.17 mph93%29.45 "HgN/A
4:20 AM43 °FLight rain. Partly cloudy.12 mph93%29.42 "HgN/A
3:50 AM45 °FLight rain. Mostly cloudy.9 mph87%29.42 "HgN/A
3:20 AM45 °FLight rain. Passing clouds.6 mph87%29.42 "HgN/A
2:50 AM45 °FLight rain. Passing clouds.6 mph93%29.42 "HgN/A
2:20 AM45 °FLight rain. Mostly cloudy.5 mph93%29.42 "HgN/A
1:50 AM45 °FLight rain. Passing clouds.6 mph93%29.42 "HgN/A
1:20 AM45 °FLight rain. Mostly cloudy.6 mph93%29.45 "Hg6 mi
12:50 AM45 °FLight rain. Overcast.8 mph100%29.45 "Hg4 mi
12:20 AM46 °FLight rain. Mostly cloudy.8 mph93%29.45 "Hg3 mi
11:50 PM
Fri, Apr 24
46 °FPassing clouds.9 mph93%29.45 "Hg2 mi
11:20 PM46 °FLight rain. Mostly cloudy.8 mph93%29.45 "Hg2 mi
10:20 PM46 °FDrizzle. Low clouds.2 mph93%29.47 "Hg1 mi
9:50 PM46 °FDrizzle. Low clouds.2 mph93%29.47 "Hg1 mi
9:20 PM46 °FDrizzle. Low clouds.2 mph93%29.50 "Hg1 mi
8:50 PM45 °FDrizzle. Low clouds.5 mph100%29.50 "Hg1 mi
8:20 PM46 °FDrizzle. Low clouds.6 mph93%29.50 "Hg1 mi
7:50 PM46 °FFog.7 mph93%29.50 "Hg2 mi
7:20 PM46 °FFog.6 mph93%29.53 "Hg2 mi
6:50 PM46 °FFog.8 mph93%29.53 "Hg2 mi
6:20 PM46 °FFog.8 mph93%29.56 "Hg2 mi
5:50 PM46 °FFog.10 mph93%29.56 "Hg2 mi
5:20 PM46 °FFog.10 mph93%29.56 "Hg2 mi
4:50 PM48 °FPartly sunny.10 mph87%29.56 "Hg3 mi
4:20 PM50 °FScattered clouds.12 mph82%29.56 "Hg4 mi
3:50 PM54 °FScattered clouds.15 mph72%29.56 "HgN/A
3:20 PM57 °FScattered clouds.12 mph63%29.56 "HgN/A
2:50 PM59 °FScattered clouds.12 mph63%29.59 "HgN/A
2:20 PM59 °FScattered clouds.9 mph63%29.59 "HgN/A
1:50 PM57 °FScattered clouds.6 mph55%29.62 "HgN/A
1:20 PM59 °FScattered clouds.3 mph55%29.62 "HgN/A
Weather by CustomWeather, © 2015

See weather overviewHow to use our weather pages